Showing default

TEN-KOH, 43677

Orbit data source: Space-Track

TEN-KOH, 43677 is a payload satellite owned by Kyutech (JP) in SSO that was launched on Mon, 29 Oct 2018 UTC via an H-IIA 202 launch vehicle from the Tanegashima Space Center (TNSTA). Payload-class satellites include a variety of spacecraft equipped with specific instruments for various scientific and technological missions. These include communications satellites like Starlink; space stations such as the ISS; scientific satellites like the Hubble; Earth observation satellites from companies like Planet Labs, Umbra, and HawkEye 360; GPS; miniature CubeSats for education and research; and military/defense satellites.

Loading next visibility...
Identifier
43677, 2018-084G
Orbit
SSO
Country
Flag of JPJP / JPN
Related business
Manufacturer
Kyutech
Mission
Operational Amateur Technology
Bus & Motor
SHINEN-2, Unknown motor
Mass
22.3 kg wet, 22.3 kg dry
Launch date (UTC)
2018-10-29 (7 years ago)
Launch vehicle
H-IIA 202
Launch site
Tanegashima Space Center (TNSTA)
Object type
Payload
Rocket body
Debris
Shape & HBR
Polyhedral Cyl, 0.3 m
Radar Cross Section
0.295 m², Medium (>0.1 m² and < 1m²)

Expand to show TLE details & history
Last TLE update: 14 hours ago

TLE from 14 hours ago
0 TEN-KOH
1 43677U 18084G   26034.07423441  .00003489  00000-0  26970-3 0  9999
2 43677  98.0713 220.8239 0009117 207.3444 152.7300 15.02191300396025
Epoch: 2026-02-03T01:46Z
TLE epoch observation values (Epoch: 2026-02-03T01:46:53.853Z)
Latitude
-0.00007°
Longitude
60.83913°
Altitude
568.812 km
Speed
7.574 km/s
True Right ascension
14h 43m 17s
True Declination
0° 00' 00"
Sunlit
Object was in daylight at epoch
Visualization orbit readout
Latitude
Unknown
Longitude
Unknown
Altitude
Unknown
Speed
Unknown
Apparent Right ascension
Unknown
Apparent Declination
Unknown
Sunlit
N/A
Visualization observer readout
Local Sidereal Time
17:30:21
Azimuth
Unknown
Elevation
Unknown
Doppler factor
Unknown
Orbital elements
Apogee altitude
563.483 km
Perigee altitude
550.837 km
Semi-major axis
6,935.297 km
Eccentricity
0.00091
Inclination
98.0713°
RAAN
220.8239°
Arg. of periapsis
207.3444°
True anomaly
152.77782°
Mean anomaly
152.73°
Eccentric anomaly
152.75391°
Mean motion
3.7579 °/min
Orbital period
95.8 mins
BSTAR
0.0002697
Loading maneuver chart data...
Computing Atmospheric mass density...
Loading historical data...
Loading historical data...
Loading historical data...
Loading historical data...
Loading historical data...
Loading historical data...
Loading historical data...

Documentation

Showing up to 5 results
|